Regional Weather Roundup
Issued by NWS

Home | Current Version | Previous Version | Text Only | Print | Product List | Glossary Off
Versions: 1 2 3 4 5 6 7 8 9 10 11 12 13 14 15 16 17 18 19 20 21 22 23 24 25 26 27 28 29 30 31 32 33 34 35 36 37 38 39 40 41 42 43 44 45 46 47 48 49 50

000
ASUS45 KBOI 290910
RWRID

IDAHO REGIONAL WEATHER ROUNDUP
NATIONAL WEATHER SERVICE BOISE ID
300 AM MDT FRI MAY 29 2015

NOTE: "FAIR" INDICATES FEW OR NO CLOUDS BELOW 12000 FEET
WITH NO SIGNIFICANT WEATHER AND/OR OBSTRUCTIONS TO VISIBILITY

IDZ012-014-291000-
SOUTHWEST IDAHO


CITY           SKY/WX    TMP DP  RH WIND       PRES   REMARKS
BOISE          CLEAR     62  47  57 SE8       30.07R
CALDWELL       CLEAR     54  39  58 SE9       30.07R
MOUNTAIN HOME  CLEAR     59  47  63 E12       30.08F
$$

IDZ016-017-291000-
SOUTHCENTRAL IDAHO


CITY           SKY/WX    TMP DP  RH WIND       PRES   REMARKS
BURLEY         CLEAR     53  44  71 E6        30.15S
JEROME         CLEAR     54  46  74 NE15      30.14S
TWIN FALLS     CLEAR     49  40  71 SE6       30.12S
$$

IDZ019>023-291000-
SOUTHEAST IDAHO


CITY           SKY/WX    TMP DP  RH WIND       PRES   REMARKS
IDAHO FALLS    CLEAR     45  43  93 N8        30.22S
POCATELLO      CLEAR     47  45  93 CALM      30.20S
REXBURG        CLEAR     43  41  93 NE6       30.23R
$$

IDZ006-010-011-018-031-032-291000-
CENTRAL IDAHO MOUNTAINS


CITY           SKY/WX    TMP DP  RH WIND       PRES   REMARKS
MCCALL         CLEAR     46  40  79 CALM      30.15S
HAILEY         CLOUDY    48  46  93 NW7       30.24S
STANLEY          N/A     36  32  85 S3        30.26S
SALMON         PTCLDY    45  43  93 S3        30.22S
CHALLIS        CLEAR     45  41  86 SE3       30.23R
$$

IDZ002-004-006-007-026-291000-
NORTHERN IDAHO


CITY           SKY/WX    TMP DP  RH WIND       PRES   REMARKS
LEWISTON       LGT RAIN  61  53  75 E7        30.02F
LOWELL           N/A     52  50  93 CALM      30.11F
COEUR D`ALENE  CLEAR     54  50  87 NE9       30.09F
MULLAN PASS    MOCLDY    44  43  96 SE12G25   30.22S
$$


USA.gov is the U.S. government's official web portal to all federal, state and local government web resources and services.